Flag for Sierra Leone Weather past 2 weeks in Kenema, Sierra Leone

Now
77 °F

Partly sunny.


Feels Like: 78 °F
Forecast: 72 / 82 °F
Wind: 7 mph from South

Location: Roberts Field

Current Time: Jul 28, 2014 at 12:29:25 PM

Latest Report: Jul 28, 2014 at 12:00 PM


Visibility: N/A

Pressure: 29.95 "Hg

Humidity: 94%

Dew point: 75 °F

Location of KenemaLocation

Historic Weather in Kenema — Graph

°F

Kenema temperature yesterday

Maximum temperature yesterday: 79 °F (at 12:00 PM)
Minimum temperature yesterday: 75 °F (at 1:00 AM)
Average temperature yesterday: 76 °F

Past Weeks' High & Low Weather Summary

 TemperatureHumidityPressure
High84 °F (Jul 18, 2:30 PM)100% (Jul 27, 4:00 PM)30.07 "Hg (Jul 27, 4:00 PM)
Low73 °F (Jul 19, 5:00 AM)70% (Jul 18, 2:30 PM)29.86 "Hg (Jul 27, 5:00 PM)
Average77 °F91%29.96 "Hg
* Reported Jul 13 11:00 AM — Jul 28 11:30 AM, Kenema, Weather by CustomWeather, © 2014

Note: Actual official high and low records may vary slightly from our data, if they occured in-between our weather recording intervals... More about our weather records

Advertising

Kenema weather history for previous 24 hours

 ConditionsComfort  
Time TempWeatherWind HumidityBarometerVisibility
11:30 AM
Jul 28
77 °FRain. Partly sunny.No wind94%29.95 "HgN/A
11:00 AM75 °FLight rain. Partly sunny.No wind94%29.98 "Hg6 mi
10:30 AM75 °FLight rain. Broken clouds.No wind94%29.98 "Hg5 mi
10:00 AM75 °FLight rain. Broken clouds.5 mph94%29.98 "Hg4 mi
9:30 AM75 °FRain. Mostly cloudy.No wind94%29.98 "Hg4 mi
9:00 AM75 °FRain. Mostly cloudy.3 mph94%29.98 "Hg2 mi
8:30 AM75 °FRain. Mostly cloudy.5 mph94%29.95 "Hg2 mi
8:00 AM75 °FRain. Mostly cloudy.3 mph94%29.95 "Hg1 mi
7:00 AM73 °FRain. Mostly cloudy.9 mph100%29.92 "Hg1 mi
6:00 AM75 °FRain. Mostly cloudy.No wind94%29.92 "Hg2 mi
5:30 AM75 °FRain. Mostly cloudy.5 mph94%29.92 "Hg2 mi
5:00 AM75 °FRain. Mostly cloudy.5 mph94%29.89 "Hg2 mi
4:00 AM75 °FRain. Partly cloudy.3 mph94%29.89 "Hg3 mi
3:00 AM75 °FRain. Partly cloudy.3 mph94%29.89 "Hg2 mi
2:30 AM75 °FRain. Partly cloudy.7 mph94%29.89 "Hg2 mi
2:00 AM75 °FRain. Partly cloudy.N/A94%29.92 "Hg2 mi
1:00 AM75 °FRain. Partly cloudy.N/A94%29.92 "Hg2 mi
12:30 AM75 °FRain. Partly cloudy.3 mph94%29.95 "Hg2 mi
12:00 AM75 °FRain. Partly cloudy.6 mph94%29.95 "Hg2 mi
11:30 PM
Jul 27
75 °FRain. Partly cloudy.No wind94%29.95 "Hg2 mi
11:00 PM75 °FRain. Partly cloudy.No wind94%29.95 "Hg2 mi
10:30 PM75 °FRain. Partly cloudy.No wind94%29.95 "Hg3 mi
10:00 PM75 °FPassing clouds.No wind94%29.95 "Hg4 mi
9:00 PM75 °FLight rain. Passing clouds.No wind94%29.92 "Hg6 mi
8:30 PM75 °FLight rain. Partly cloudy.6 mph94%29.92 "Hg5 mi
8:00 PM75 °FPartly cloudy.5 mph94%29.92 "Hg5 mi
7:30 PM75 °FLight rain. Mostly cloudy.3 mph94%29.92 "Hg4 mi
7:00 PM75 °FLight rain. Mostly cloudy.No wind94%29.89 "Hg4 mi
6:30 PM75 °FLight rain. Mostly cloudy.5 mph94%29.89 "Hg4 mi
6:00 PM77 °FLight rain. Mostly cloudy.No wind94%29.89 "Hg4 mi
5:30 PM77 °FLight rain. Broken clouds.3 mph94%29.89 "Hg5 mi
5:00 PM75 °FRain. Mostly cloudy.8 mph100%29.86 "Hg2 mi
4:30 PM75 °FRain. Mostly cloudy.5 mph100%29.89 "Hg1 mi
4:00 PM75 °FRain. Mostly cloudy.No wind100%29.89 "Hg3 mi
3:30 PM77 °FRain. Mostly cloudy.6 mph94%29.89 "Hg2 mi
3:00 PM75 °FRain. Mostly cloudy.6 mph94%29.89 "Hg2 mi
2:00 PM77 °FRain. Mostly cloudy.6 mph94%29.92 "Hg4 mi
1:00 PM77 °FRain. Broken clouds.6 mph94%29.95 "Hg3 mi
12:00 PM79 °FPartly sunny.7 mph89%29.95 "HgN/A
Weather by CustomWeather, © 2014

See weather overviewHow to use our weather pages